Port Angeles, WA
on Friday, January 11, 2013

Friday
Previous Day Next Day
Daily Summary
 ActualAverageRecord
Temperature
Mean Temperature °F °F  
Max Temperature 39°F 44°F 61°F (1983)
Min Temperature 28°F 34°F 15°F (1963)
Degree Days
Heating Degree Days 32    
Moisture
Dew Point 24°F   
Average Humidity 71    
Maximum Humidity 92    
Minimum Humidity 43    
Precipitation
Precipitation 0.00 in in in ()
Wind
Wind Speed 4 mph   
Max Wind Speed 9 mph   
Max Gust Speed mph   
Visibility 10 miles   
Events     
Averages and records for this station are not official NWS values.
Key: T is trace of precipitation, MM is missing value
Source: NWS Daily Summary
Seasonal Weather Averages
Time(PST)TemperatureDew PointHumidity Pressure Visibility Wind DirectionWind SpeedGust SpeedPrecipitationEvents Conditions
12:53 AM 37.0°F 30.0°F 76% 30.16 in 10.0 miles Variable 4.6 mph - N/A   Overcast
1:53 AM 37.0°F 30.0°F 76% 30.17 in 10.0 miles Variable 3.5 mph - N/A   Mostly Cloudy
2:53 AM 37.0°F 26.1°F 65% 30.18 in 10.0 miles Calm Calm - N/A   Mostly Cloudy
3:53 AM 33.1°F 30.0°F 89% 30.19 in 10.0 miles Calm Calm - N/A   Overcast
4:16 AM 33.1°F 30.9°F 92% 30.19 in 10.0 miles SSW 3.5 mph - N/A   Overcast
4:25 AM 33.1°F 30.9°F 92% 30.19 in 10.0 miles SW 4.6 mph - N/A   Overcast
4:53 AM 33.1°F 30.0°F 89% 30.20 in 10.0 miles ESE 3.5 mph - N/A   Overcast
5:03 AM 34.0°F 30.0°F 85% 30.20 in 10.0 miles SSE 3.5 mph - N/A   Overcast
5:53 AM 36.0°F 23.0°F 59% 30.22 in 10.0 miles East 8.1 mph - N/A   Mostly Cloudy
6:53 AM 35.1°F 19.9°F 54% 30.25 in 10.0 miles ESE 4.6 mph - N/A   Mostly Cloudy
7:53 AM 30.9°F 24.1°F 76% 30.28 in 10.0 miles SE 5.8 mph - N/A   Mostly Cloudy
8:53 AM 30.9°F 26.1°F 82% 30.30 in 10.0 miles SE 5.8 mph - N/A   Partly Cloudy
9:53 AM 36.0°F 24.1°F 62% 30.31 in 10.0 miles SSE 8.1 mph - N/A   Partly Cloudy
10:53 AM 37.9°F 19.9°F 48% 30.33 in 10.0 miles ESE 5.8 mph - N/A   Clear
11:53 AM 37.4°F 19.4°F 48% 30.31 in 10.0 miles ESE 9.2 mph - N/A   Clear
12:53 PM 39.0°F 18.0°F 43% 30.31 in 10.0 miles ESE 4.6 mph - N/A   Clear
1:53 PM 39.0°F 19.0°F 45% 30.31 in 10.0 miles ESE 6.9 mph - N/A   Clear
2:53 PM 37.9°F 19.9°F 48% 30.32 in 10.0 miles East 5.8 mph - N/A   Clear
3:53 PM 37.0°F 19.0°F 48% 30.32 in 10.0 miles East 3.5 mph - N/A   Clear
4:53 PM 30.9°F 24.1°F 76% 30.33 in 10.0 miles South 3.5 mph - N/A   Clear
5:53 PM 28.9°F 25.0°F 85% 30.33 in 10.0 miles SW 4.6 mph - N/A   Clear
6:53 PM 30.0°F 24.1°F 79% 30.32 in 10.0 miles SW 6.9 mph - N/A   Clear
7:53 PM 30.0°F 23.0°F 75% 30.32 in 10.0 miles SW 6.9 mph - N/A   Partly Cloudy
8:53 PM 30.0°F 23.0°F 75% 30.31 in 10.0 miles North - - N/A   Clear
9:53 PM 28.9°F 23.0°F 78% 30.32 in 10.0 miles North - - N/A   Clear
10:53 PM 28.9°F 24.1°F 82% 30.31 in 10.0 miles North - - N/A   Clear
11:53 PM 28.4°F 23.0°F 80% 30.30 in 10.0 miles North - - N/A   Clear
Moon Phase
Jan. 11 Jan. 18 Jan. 26 Feb. 03 Feb. 10
Sunrise:08:01 AM (PST) Moon Rise:07:35 AM (PST)1/11
Sunset:04:43 PM (PST) Moon Set:05:12 PM (PST)1/11

Copyright © 2014 The Weather Underground, Inc.